Salmon, ID

1:46 AM MDT on August 25, 2019 (GMT -0600)
Lemhi County

Weather History for KSMN - July, 2019

Change the Weather History Date:

Tuesday, July 16, 2019

  Actual Average Record
Temperature  
Mean Temperature 64 °F -  
Max Temperature 79 °F 83 °F 101 °F (1977)
Min Temperature 52 °F 49 °F 41 °F (1983)
Growing Degree Days 14 (Base 50)    
Moisture  
Dew Point 52 °F    
Average Humidity 65    
Maximum Humidity 93    
Minimum Humidity 39    
Precipitation  
Precipitation 0.05 in - - ()
Sea Level Pressure  
Sea Level Pressure 29.93 in    
Wind  
Wind Speed 4 mph (WSW)    
Max Wind Speed 13 mph    
Max Gust Speed 30 mph    
Visibility 10 miles    
Events Rain , Thunderstorm    
Averages and records for this station are not official NWS values.
T = Trace of Precipitation, MM = Missing Value Source: NWS Daily Summary

Daily Weather History Graph

Daily Weather History Graph

Search for Another Location

Airport or City:

Astronomy

Jul. 16, 2019 Rise Set
Actual Time 6:03 AM MDT 9:19 PM MDT
Civil Twilight 5:27 AM MDT 9:54 PM MDT
Nautical Twilight 4:40 AM MDT 10:41 PM MDT
Astronomical Twilight 3:42 AM MDT 11:38 PM MDT
Moon 9:28 PM MDT (7/16) 5:44 AM MDT (7/16)
Length of Visible Light 16h 27m
Length of Day
15h 15m
Full, 100% of the Moon is Illuminated
Jul 16
Full
Jul 16
Full
Jul 24
Last Quarter
Jul 31
New
Aug 7
First Quarter

Hourly Weather History & Observations

Time (MDT) Temp. Dew Point Humidity Pressure Visibility Wind Dir Wind Speed Gust Speed Precip Events Conditions
12:17 AM 60.8 °F 53.6 °F 77% 30.08 in 10.0 mi North 11.5 mph - 0.00 in Rain Light Rain
12:56 AM 61.0 °F 52.0 °F 72% 30.00 in 10.0 mi Calm Calm - 0.00 in Rain Light Rain
1:56 AM 57.9 °F 52.0 °F 81% 30.00 in 10.0 mi Calm Calm - 0.00 in   Mostly Cloudy
2:56 AM 57.0 °F 53.1 °F 87% 29.99 in 10.0 mi Calm Calm - N/A   Scattered Clouds
3:56 AM 53.1 °F 51.1 °F 93% 29.99 in 10.0 mi SW 4.6 mph - N/A   Clear
4:56 AM 53.1 °F 50.0 °F 89% 29.99 in 10.0 mi Calm Calm - N/A   Overcast
5:56 AM 52.0 °F 50.0 °F 93% 30.03 in 10.0 mi Calm Calm - N/A   Partly Cloudy
6:56 AM 53.1 °F 50.0 °F 89% 30.03 in 10.0 mi Calm Calm - N/A   Clear
7:56 AM 55.9 °F 52.0 °F 87% 30.02 in 10.0 mi Calm Calm - N/A   Clear
8:56 AM 57.0 °F 53.1 °F 87% 30.01 in 10.0 mi North 4.6 mph - N/A   Scattered Clouds
9:56 AM 60.1 °F 53.1 °F 78% 30.00 in 10.0 mi Calm Calm - N/A   Partly Cloudy
10:56 AM 63.0 °F 54.0 °F 72% 29.98 in 10.0 mi Calm Calm - N/A   Clear
11:56 AM 66.0 °F 53.1 °F 63% 29.96 in 10.0 mi NNW 3.5 mph - N/A   Mostly Cloudy
12:56 PM 69.1 °F 52.0 °F 54% 29.92 in 10.0 mi Calm Calm - 0.00 in Rain Light Rain
1:56 PM 71.1 °F 51.1 °F 49% 29.88 in 10.0 mi Calm Calm - 0.00 in   Partly Cloudy
2:56 PM 75.9 °F 51.1 °F 42% 29.84 in 10.0 mi Calm Calm - N/A   Partly Cloudy
3:17 PM 77.0 °F 50.0 °F 39% 29.92 in 10.0 mi Variable 4.6 mph - N/A Thunderstorm Mostly Cloudy
3:52 PM 75.2 °F 51.8 °F 44% 29.91 in 10.0 mi SSE 12.7 mph 29.9 mph N/A Thunderstorm Thunderstorm
3:56 PM 75.9 °F 50.0 °F 40% 29.84 in 10.0 mi SSE 10.4 mph - N/A Thunderstorm Mostly Cloudy
4:04 PM 75.2 °F 50.0 °F 41% 29.91 in 10.0 mi SSW 6.9 mph - N/A   Scattered Clouds
4:56 PM 75.9 °F 50.0 °F 40% 29.81 in 10.0 mi WNW 4.6 mph - N/A   Partly Cloudy
5:56 PM 77.0 °F 52.0 °F 42% 29.80 in 10.0 mi WNW 5.8 mph - N/A   Mostly Cloudy
6:56 PM 77.0 °F 50.0 °F 39% 29.79 in 10.0 mi SW 3.5 mph - N/A   Partly Cloudy
7:56 PM 71.1 °F 52.0 °F 51% 29.82 in 7.0 mi SSW 10.4 mph 20.7 mph 0.04 in Rain , Thunderstorm Heavy Thunderstorms and Rain
8:56 PM 69.1 °F 51.1 °F 53% 29.84 in 10.0 mi South 3.5 mph - 0.01 in   Mostly Cloudy
9:56 PM 64.9 °F 54.0 °F 68% 29.87 in 10.0 mi Calm Calm - N/A   Mostly Cloudy
10:56 PM 63.0 °F 55.0 °F 75% 29.89 in 10.0 mi Calm Calm - N/A   Mostly Cloudy
11:56 PM 62.1 °F 55.0 °F 78% 29.90 in 10.0 mi Variable 3.5 mph - N/A   Mostly Cloudy